Hourly Data Report for October 06, 2017

All times are specified in Local Standard Time (LST). Add 1 hour to adjust for Daylight Saving Time where and when it is observed.

BANCROFT AUTO
ONTARIO

45°04'17.000" N
77°52'44.000" W
330.70 m
616I001
71294
WRK

Download Data

Hourly Data (October 2017)
Hourly Data Report for October 6, 2017
Temp Definition
°C
Dew Point Temp Definition
°C
Rel Hum Definition
%
Wind Dir Definition
10's deg

Wind Spd Definition
km/h
Visibility Definition
km
Stn Press Definition
kPa
Hmdx Definition


Wind Chill Definition


Weather Definition


TIME
00:00 7.8 7.8 100   0   97.81     LegendNANA
01:00 8.7 8.6 99 0 1   97.80     LegendNANA
02:00 9.0 8.8 99   0   97.82     LegendNANA
03:00 9.2 9.2 100   0   97.79     LegendNANA
04:00 9.5 9.4 100   0   97.84     LegendNANA
05:00 9.6 9.6 100 0 1   97.84     LegendNANA
06:00 10.0 10.0 100 0 1   97.82     LegendNANA
07:00 9.9 9.9 100   0   97.88     LegendNANA
08:00 11.0 11.0 100   0   97.93     LegendNANA
09:00 11.7 11.5 98   0   97.95     LegendNANA
10:00 12.8 11.6 93 19 4   97.93     LegendNANA
11:00 13.1 10.2 83 20 4   97.93     LegendNANA
12:00 13.8 9.4 74 23 4   97.90     LegendNANA
13:00 15.5 9.0 65 28 4   97.85     LegendNANA
14:00
15:00 15.5 9.5 68 22 6   97.80     LegendNANA
16:00 14.8 9.6 71 22 7   97.77     LegendNANA
17:00 14.3 9.4 72 22 4   97.77     LegendNANA
18:00 12.1 9.5 84 22 2   97.77     LegendNANA
19:00 10.2 9.8 97 0 1   97.82     LegendNANA
20:00 10.6 10.6 100 19 2   97.82     LegendNANA
21:00 11.0 10.8 98 0 1   97.84     LegendNANA
22:00 11.0 10.6 98   0   97.80     LegendNANA
23:00 9.6 9.6 100 30 1   97.76     LegendNANA

Notes on Data Quality.

Legend

  • E = Estimated
  • M = Missing
  • NA = Not Available
  • ‡ = Partner data that is not subject to review by the National Climate Archives
Date modified: